Home > Weather > Makassar > Past weeks

Flag for Indonesia Past Weather in Makassar, South Sulawesi, Indonesia — Yesterday and Last 2 Weeks

Now
90 °F

Passing clouds.


Feels Like: 96 °F
Forecast: 77 / 89 °F
Wind: 3 mph from Southeast

Location: Ujung Pandang / Hasanuddin

Current Time: Jul 28, 2016 at 10:58:16 AM

Latest Report: Jul 28, 2016 at 10:30 AM


Visibility: N/A

Pressure: 29.86 "Hg

Humidity: 55%

Dew Point: 72 °F

Location of MakassarLocation

Past Weather in Makassar — Graph

°F

Makassar Temperature Yesterday

Maximum temperature yesterday: 91 °F (at 12:30 PM)
Minimum temperature yesterday: 68 °F (at 4:30 AM)
Average temperature yesterday: 80 °F

High & Low Weather Summary for the Past Weeks

 TemperatureHumidityPressure
High93 °F (Jul 14, 1:30 PM)100% (Jul 13, 6:00 PM)29.89 "Hg (Jul 13, 6:00 PM)
Low68 °F (Jul 27, 4:30 AM)21% (Jul 21, 2:30 PM)29.74 "Hg (Jul 13, 3:00 PM)
Average80 °F85%29.82 "Hg
* Reported Jul 13 9:00 AM — Jul 28 9:30 AM, Makassar, Weather by CustomWeather, © 2016

Note: Actual official high and low records may vary slightly from our data, if they occured in-between our weather recording intervals... More about our weather records

Advertising

Makassar Weather History for the Previous 24 Hours

Scroll right to see more
 ConditionsComfort  
Time TempWeatherWind HumidityBarometerVisibility
9:30 AM
Thu, Jul 28
86 °FPassing clouds.2 mph62%29.89 "HgN/A
9:00 AM86 °FPassing clouds.2 mph62%29.89 "HgN/A
8:30 AM82 °FPassing clouds.2 mph70%29.89 "HgN/A
8:00 AM79 °FPassing clouds.5 mph84%29.89 "HgN/A
7:30 AM75 °FPassing clouds.3 mph89%29.89 "HgN/A
7:00 AM73 °FPassing clouds.2 mph89%29.89 "Hg6 mi
6:30 AM70 °FPassing clouds.3 mph100%29.86 "Hg6 mi
6:00 AM70 °FPassing clouds.3 mph100%29.86 "Hg6 mi
5:30 AM70 °FPassing clouds.2 mph100%29.86 "Hg5 mi
5:00 AM70 °FPassing clouds.2 mph100%29.86 "Hg5 mi
4:30 AM70 °FPassing clouds.3 mph100%29.83 "Hg5 mi
4:00 AM70 °FPassing clouds.3 mph100%29.83 "Hg5 mi
3:30 AM70 °FPassing clouds.1 mph100%29.83 "Hg5 mi
3:00 AM70 °FPassing clouds.2 mph100%29.83 "Hg5 mi
2:30 AM72 °FPassing clouds.2 mph100%29.83 "Hg5 mi
2:00 AM72 °FPassing clouds.1 mph100%29.83 "Hg5 mi
1:30 AM72 °FPassing clouds.5 mph100%29.83 "Hg5 mi
1:00 AM72 °FPassing clouds.3 mph100%29.86 "Hg5 mi
12:30 AM72 °FPassing clouds.3 mph100%29.86 "Hg5 mi
12:00 AM73 °FPassing clouds.1 mph94%29.86 "Hg5 mi
11:30 PM
Wed, Jul 27
73 °FPassing clouds.5 mph94%29.86 "Hg5 mi
11:00 PM75 °FPassing clouds.5 mph83%29.86 "Hg5 mi
10:30 PM75 °FPassing clouds.3 mph89%29.86 "Hg5 mi
10:00 PM77 °FPassing clouds.5 mph74%29.86 "Hg5 mi
9:30 PM75 °FPassing clouds.3 mph89%29.86 "Hg5 mi
9:00 PM77 °FPassing clouds.2 mph83%29.86 "Hg5 mi
8:30 PM79 °FPassing clouds.2 mph74%29.83 "Hg5 mi
8:00 PM79 °FPassing clouds.3 mph74%29.83 "Hg5 mi
7:30 PM79 °FPassing clouds.6 mph74%29.83 "Hg5 mi
7:00 PM82 °FPassing clouds.6 mph66%29.83 "Hg5 mi
6:30 PM82 °FPassing clouds.3 mph70%29.83 "Hg6 mi
6:00 PM84 °FPassing clouds.5 mph66%29.80 "HgN/A
5:30 PM86 °FScattered clouds.6 mph62%29.80 "HgN/A
5:00 PM88 °FScattered clouds.7 mph59%29.80 "HgN/A
4:30 PM90 °FScattered clouds.6 mph55%29.77 "HgN/A
4:00 PM90 °FScattered clouds.7 mph55%29.77 "HgN/A
3:30 PM90 °FScattered clouds.6 mph52%29.77 "HgN/A
3:00 PM90 °FPassing clouds.8 mph52%29.77 "HgN/A
2:30 PM90 °FPassing clouds.8 mph55%29.77 "HgN/A
2:00 PM91 °FPassing clouds.9 mph52%29.77 "HgN/A
1:30 PM91 °FPassing clouds.6 mph49%29.77 "HgN/A
1:00 PM91 °FPassing clouds.5 mph49%29.80 "HgN/A
12:30 PM91 °FPassing clouds.6 mph52%29.80 "HgN/A
12:00 PM90 °FPassing clouds.3 mph52%29.83 "HgN/A
11:30 AM88 °FPassing clouds.5 mph52%29.83 "HgN/A
11:00 AM88 °FPassing clouds.2 mph49%29.83 "HgN/A
10:30 AM88 °FPassing clouds.3 mph52%29.86 "HgN/A
10:00 AM86 °FPassing clouds.3 mph66%29.86 "HgN/A
Weather by CustomWeather, © 2016

See weather overviewHow to use our weather pages